Time,TemperatureF,DewpointF,PressureIn,WindDirection,WindDirectionDegrees,WindSpeedMPH,WindSpeedGustMPH,Humidity,HourlyPrecipIn,Conditions,Clouds,dailyrainin,SoftwareType,DateUTC
2013-04-05 00:03:00,43.0,30.0,29.96,WSW,257,0.0,1.0,61,0.00,,,0.00,,2013-04-05 04:03:00,
2013-04-05 00:13:00,43.0,30.0,29.96,WSW,257,0.0,1.0,61,0.00,,,0.00,,2013-04-05 04:13:00,
2013-04-05 00:23:00,42.0,25.0,29.95,WSW,252,0.0,0.0,50,0.00,,,0.00,,2013-04-05 04:23:00,
2013-04-05 00:33:00,42.0,27.0,29.94,WSW,252,0.0,0.0,55,0.00,,,0.00,,2013-04-05 04:33:00,
2013-04-05 00:42:00,42.0,27.0,29.94,WSW,252,0.0,0.0,55,0.00,,,0.00,,2013-04-05 04:42:00,
2013-04-05 00:52:00,42.0,27.0,29.94,WSW,252,0.0,0.0,55,0.00,,,0.00,,2013-04-05 04:52:00,
2013-04-05 01:02:00,42.0,30.0,29.93,WSW,252,0.0,0.0,61,0.00,,,0.00,,2013-04-05 05:02:00,
2013-04-05 01:13:00,42.0,30.0,29.93,WSW,252,0.0,0.0,61,0.00,,,0.00,,2013-04-05 05:13:00,
2013-04-05 01:22:00,42.0,32.0,29.93,WSW,250,0.0,0.0,67,0.00,,,0.00,,2013-04-05 05:22:00,
2013-04-05 01:32:00,42.0,31.0,29.93,WSW,252,0.0,0.0,64,0.00,,,0.00,,2013-04-05 05:32:00,
2013-04-05 01:42:00,42.0,31.0,29.93,WSW,252,0.0,0.0,64,0.00,,,0.00,,2013-04-05 05:42:00,
2013-04-05 01:52:00,41.0,27.0,29.93,WSW,252,0.0,0.0,58,0.00,,,0.00,,2013-04-05 05:52:00,
2013-04-05 02:02:00,41.0,31.0,29.93,WSW,250,0.0,0.0,68,0.00,,,0.00,,2013-04-05 06:02:00,
2013-04-05 02:12:00,41.0,31.0,29.93,WSW,250,0.0,0.0,68,0.00,,,0.00,,2013-04-05 06:12:00,
2013-04-05 02:22:00,41.0,28.0,29.93,WSW,250,0.0,0.0,59,0.00,,,0.00,,2013-04-05 06:22:00,
2013-04-05 02:32:00,40.0,29.0,29.94,WSW,252,0.0,0.0,64,0.00,,,0.00,,2013-04-05 06:32:00,
2013-04-05 02:42:00,40.0,29.0,29.94,WSW,252,0.0,0.0,64,0.00,,,0.00,,2013-04-05 06:42:00,
2013-04-05 02:52:00,40.0,24.0,29.94,WSW,250,0.0,0.0,53,0.00,,,0.00,,2013-04-05 06:52:00,
2013-04-05 03:03:00,40.0,24.0,29.94,WSW,250,0.0,0.0,53,0.00,,,0.00,,2013-04-05 07:03:00,
2013-04-05 03:12:00,40.0,24.0,29.94,WSW,250,0.0,0.0,53,0.00,,,0.00,,2013-04-05 07:12:00,
2013-04-05 03:22:00,39.0,30.0,29.94,WSW,250,0.0,0.0,70,0.00,,,0.00,,2013-04-05 07:22:00,
2013-04-05 03:32:00,38.0,29.0,29.94,WSW,250,0.0,0.0,71,0.00,,,0.00,,2013-04-05 07:32:00,
2013-04-05 03:42:00,38.0,29.0,29.94,WSW,250,0.0,0.0,71,0.00,,,0.00,,2013-04-05 07:42:00,
2013-04-05 03:52:00,37.0,27.0,29.94,NNW,338,0.0,2.0,66,0.00,,,0.00,,2013-04-05 07:52:00,
2013-04-05 04:03:00,39.0,25.0,29.95,NNW,338,0.0,1.0,58,0.00,,,0.00,,2013-04-05 08:03:00,
2013-04-05 04:13:00,39.0,25.0,29.95,NNW,338,0.0,1.0,58,0.00,,,0.00,,2013-04-05 08:13:00,
2013-04-05 04:22:00,39.0,23.0,29.95,NW,319,0.0,2.0,53,0.00,,,0.00,,2013-04-05 08:22:00,
2013-04-05 04:33:00,39.0,25.0,29.96,NNE,21,0.0,2.0,57,0.00,,,0.00,,2013-04-05 08:33:00,
2013-04-05 04:43:00,39.0,25.0,29.96,NNE,21,0.0,2.0,57,0.00,,,0.00,,2013-04-05 08:43:00,
2013-04-05 04:52:00,39.0,27.0,29.96,NE,44,0.0,2.0,61,0.00,,,0.00,,2013-04-05 08:52:00,
2013-04-05 05:02:00,39.0,30.0,29.97,NE,53,2.0,3.0,69,0.00,,,0.00,,2013-04-05 09:02:00,
2013-04-05 05:12:00,39.0,30.0,29.97,NE,53,2.0,3.0,69,0.00,,,0.00,,2013-04-05 09:12:00,
2013-04-05 05:22:00,38.0,30.0,29.98,NNE,20,1.0,3.0,73,0.00,,,0.00,,2013-04-05 09:22:00,
2013-04-05 05:33:00,38.0,31.0,29.99,NE,34,0.0,4.0,75,0.00,,,0.00,,2013-04-05 09:33:00,
2013-04-05 05:43:00,38.0,31.0,29.99,NE,34,0.0,4.0,75,0.00,,,0.00,,2013-04-05 09:43:00,
2013-04-05 05:52:00,37.0,31.0,30.00,ENE,57,1.0,4.0,78,0.00,,,0.00,,2013-04-05 09:52:00,
2013-04-05 06:03:00,37.0,31.0,30.01,North,8,0.0,3.0,80,0.00,,,0.00,,2013-04-05 10:03:00,
2013-04-05 06:13:00,37.0,31.0,30.01,North,8,0.0,3.0,80,0.00,,,0.00,,2013-04-05 10:13:00,
2013-04-05 06:23:00,36.0,31.0,30.01,NNE,13,1.0,3.0,82,0.00,,,0.00,,2013-04-05 10:23:00,
2013-04-05 06:33:00,36.0,31.0,30.02,NW,311,0.0,4.0,83,0.00,,,0.00,,2013-04-05 10:33:00,
2013-04-05 06:43:00,36.0,31.0,30.02,NW,311,0.0,4.0,83,0.00,,,0.00,,2013-04-05 10:43:00,
2013-04-05 06:52:00,35.0,31.0,30.03,ENE,68,1.0,4.0,84,0.00,,,0.00,,2013-04-05 10:52:00,
2013-04-05 07:03:00,34.0,30.0,30.04,ENE,61,0.0,2.0,84,0.00,,,0.00,,2013-04-05 11:03:00,
2013-04-05 07:13:00,34.0,30.0,30.04,ENE,61,0.0,2.0,84,0.00,,,0.00,,2013-04-05 11:13:00,
2013-04-05 08:32:00,34.0,29.0,30.09,NNW,328,0.0,2.0,82,0.00,,,0.00,,2013-04-05 12:32:00,
2013-04-05 08:42:00,34.0,29.0,30.09,NNW,328,0.0,2.0,82,0.00,,,0.00,,2013-04-05 12:42:00,
2013-04-05 08:52:00,35.0,30.0,30.10,NW,308,0.0,2.0,81,0.00,,,0.00,,2013-04-05 12:52:00,
2013-04-05 09:02:00,35.0,29.0,30.10,NNE,18,1.0,3.0,78,0.00,,,0.00,,2013-04-05 13:02:00,
2013-04-05 09:12:00,35.0,29.0,30.10,NNE,18,1.0,3.0,78,0.00,,,0.00,,2013-04-05 13:12:00,
2013-04-05 09:23:00,36.0,28.0,30.11,North,353,1.0,8.0,71,0.00,,,0.00,,2013-04-05 13:23:00,
2013-04-05 09:32:00,36.0,25.0,30.11,NNW,328,1.0,5.0,64,0.00,,,0.00,,2013-04-05 13:32:00,
2013-04-05 09:42:00,36.0,25.0,30.11,NNW,328,1.0,5.0,64,0.00,,,0.00,,2013-04-05 13:42:00,
2013-04-05 09:52:00,37.0,24.0,30.11,NW,324,2.0,7.0,58,0.00,,,0.00,,2013-04-05 13:52:00,
2013-04-05 10:03:00,37.0,22.0,30.11,NNW,338,1.0,8.0,54,0.00,,,0.00,,2013-04-05 14:03:00,
2013-04-05 10:12:00,37.0,22.0,30.11,NNW,338,1.0,8.0,54,0.00,,,0.00,,2013-04-05 14:12:00,
2013-04-05 10:23:00,37.0,20.0,30.11,NW,308,2.0,7.0,49,0.00,,,0.00,,2013-04-05 14:23:00,
2013-04-05 10:37:00,38.0,22.0,30.11,NW,309,3.0,8.0,51,0.00,,,0.00,,2013-04-05 14:37:00,
2013-04-05 10:43:00,38.0,22.0,30.11,NW,309,3.0,8.0,51,0.00,,,0.00,,2013-04-05 14:43:00,
2013-04-05 10:52:00,38.0,22.0,30.11,NE,46,2.0,6.0,51,0.00,,,0.00,,2013-04-05 14:52:00,
2013-04-05 11:02:00,39.0,22.0,30.12,NW,325,5.0,7.0,50,0.00,,,0.00,,2013-04-05 15:02:00,
2013-04-05 11:13:00,39.0,22.0,30.12,NW,325,5.0,7.0,50,0.00,,,0.00,,2013-04-05 15:13:00,
2013-04-05 11:23:00,39.0,19.0,30.12,NNE,29,3.0,10.0,44,0.00,,,0.00,,2013-04-05 15:23:00,
2013-04-05 11:33:00,40.0,19.0,30.13,NW,307,3.0,11.0,43,0.00,,,0.00,,2013-04-05 15:33:00,
2013-04-05 11:43:00,40.0,19.0,30.13,NW,307,3.0,11.0,43,0.00,,,0.00,,2013-04-05 15:43:00,
2013-04-05 11:53:00,40.0,21.0,30.13,NW,316,2.0,6.0,46,0.00,,,0.00,,2013-04-05 15:53:00,
2013-04-05 12:03:00,40.0,19.0,30.13,NW,325,3.0,10.0,43,0.00,,,0.00,,2013-04-05 16:03:00,
2013-04-05 12:23:00,40.0,19.0,30.14,NW,315,6.0,9.0,42,0.00,,,0.00,,2013-04-05 16:23:00,
2013-04-05 12:33:00,41.0,20.0,30.13,NW,315,3.0,7.0,42,0.00,,,0.00,,2013-04-05 16:33:00,
2013-04-05 12:42:00,41.0,20.0,30.13,NW,315,3.0,7.0,42,0.00,,,0.00,,2013-04-05 16:42:00,
2013-04-05 12:52:00,41.0,20.0,30.13,NW,315,3.0,7.0,42,0.00,,,0.00,,2013-04-05 16:52:00,
2013-04-05 13:13:00,41.0,20.0,30.14,NW,319,2.0,10.0,42,0.00,,,0.00,,2013-04-05 17:13:00,
2013-04-05 13:23:00,42.0,19.0,30.13,NW,319,4.0,9.0,39,0.00,,,0.00,,2013-04-05 17:23:00,
2013-04-05 13:33:00,43.0,20.0,30.13,West,278,1.0,8.0,40,0.00,,,0.00,,2013-04-05 17:33:00,
2013-04-05 13:45:00,43.0,20.0,30.13,West,278,1.0,8.0,40,0.00,,,0.00,,2013-04-05 17:45:00,
2013-04-05 13:52:00,43.0,20.0,30.14,NNW,334,5.0,11.0,40,0.00,,,0.00,,2013-04-05 17:52:00,
2013-04-05 14:03:00,43.0,19.0,30.14,NW,323,3.0,14.0,38,0.00,,,0.00,,2013-04-05 18:03:00,
2013-04-05 14:13:00,43.0,19.0,30.14,NW,323,3.0,14.0,38,0.00,,,0.00,,2013-04-05 18:13:00,
2013-04-05 14:23:00,44.0,20.0,30.13,NE,42,2.0,5.0,38,0.00,,,0.00,,2013-04-05 18:23:00,
2013-04-05 14:43:00,44.0,19.0,30.13,WNW,286,2.0,11.0,36,0.00,,,0.00,,2013-04-05 18:43:00,
2013-04-05 14:52:00,44.0,18.0,30.13,NW,307,3.0,10.0,35,0.00,,,0.00,,2013-04-05 18:52:00,
2013-04-05 15:02:00,45.0,19.0,30.12,NNW,338,5.0,10.0,35,0.00,,,0.00,,2013-04-05 19:02:00,
2013-04-05 15:13:00,45.0,19.0,30.12,NNW,338,5.0,10.0,35,0.00,,,0.00,,2013-04-05 19:13:00,
2013-04-05 15:23:00,45.0,20.0,30.12,NW,319,2.0,7.0,36,0.00,,,0.00,,2013-04-05 19:23:00,
2013-04-05 15:33:00,45.0,20.0,30.12,NW,319,2.0,7.0,36,0.00,,,0.00,,2013-04-05 19:33:00,
2013-04-05 15:42:00,45.0,20.0,30.12,NW,319,2.0,7.0,36,0.00,,,0.00,,2013-04-05 19:42:00,
2013-04-05 15:52:00,45.0,20.0,30.12,NW,319,2.0,7.0,36,0.00,,,0.00,,2013-04-05 19:52:00,
2013-04-05 16:22:00,46.0,21.0,30.10,NNW,330,1.0,7.0,37,0.00,,,0.00,,2013-04-05 20:22:00,
2013-04-05 16:33:00,46.0,21.0,30.10,NNW,330,1.0,7.0,37,0.00,,,0.00,,2013-04-05 20:33:00,
2013-04-05 16:42:00,46.0,21.0,30.10,NNW,330,1.0,7.0,37,0.00,,,0.00,,2013-04-05 20:42:00,
2013-04-05 16:52:00,46.0,19.0,30.10,NE,55,2.0,6.0,33,0.00,,,0.00,,2013-04-05 20:52:00,
2013-04-05 17:03:00,46.0,19.0,30.10,WNW,285,2.0,6.0,33,0.00,,,0.00,,2013-04-05 21:03:00,
2013-04-05 17:13:00,46.0,19.0,30.10,WNW,285,2.0,6.0,33,0.00,,,0.00,,2013-04-05 21:13:00,
2013-04-05 17:24:00,47.0,20.0,30.10,West,273,1.0,4.0,34,0.00,,,0.00,,2013-04-05 21:24:00,
2013-04-05 17:34:00,47.0,20.0,30.10,WNW,295,3.0,8.0,34,0.00,,,0.00,,2013-04-05 21:34:00,
2013-04-05 17:43:00,47.0,20.0,30.10,WNW,295,3.0,8.0,34,0.00,,,0.00,,2013-04-05 21:43:00,
2013-04-05 17:53:00,46.0,19.0,30.10,ENE,66,0.0,3.0,33,0.00,,,0.00,,2013-04-05 21:53:00,
2013-04-05 18:03:00,46.0,17.0,30.11,NNW,341,4.0,9.0,31,0.00,,,0.00,,2013-04-05 22:03:00,
2013-04-05 18:13:00,46.0,17.0,30.11,NNW,341,4.0,9.0,31,0.00,,,0.00,,2013-04-05 22:13:00,
2013-04-05 18:23:00,46.0,19.0,30.11,WNW,284,1.0,7.0,33,0.00,,,0.00,,2013-04-05 22:23:00,
2013-04-05 18:33:00,46.0,19.0,30.11,ENE,60,1.0,5.0,33,0.00,,,0.00,,2013-04-05 22:33:00,
2013-04-05 18:43:00,46.0,19.0,30.11,ENE,60,1.0,5.0,33,0.00,,,0.00,,2013-04-05 22:43:00,
2013-04-05 18:52:00,46.0,20.0,30.12,NW,314,0.0,5.0,35,0.00,,,0.00,,2013-04-05 22:52:00,
2013-04-05 19:03:00,46.0,19.0,30.12,NNW,338,1.0,4.0,33,0.00,,,0.00,,2013-04-05 23:03:00,
2013-04-05 19:12:00,46.0,19.0,30.12,NNW,338,1.0,4.0,33,0.00,,,0.00,,2013-04-05 23:12:00,
2013-04-05 19:23:00,45.0,19.0,30.13,WNW,291,1.0,6.0,35,0.00,,,0.00,,2013-04-05 23:23:00,
2013-04-05 19:33:00,44.0,20.0,30.13,East,99,0.0,4.0,38,0.00,,,0.00,,2013-04-05 23:33:00,
2013-04-05 19:42:00,44.0,20.0,30.13,East,99,0.0,4.0,38,0.00,,,0.00,,2013-04-05 23:42:00,
2013-04-05 19:52:00,44.0,20.0,30.13,WNW,285,1.0,4.0,38,0.00,,,0.00,,2013-04-05 23:52:00,
2013-04-05 20:03:00,44.0,21.0,30.14,WNW,298,0.0,3.0,39,0.00,,,0.00,,2013-04-06 00:03:00,
2013-04-05 20:13:00,44.0,21.0,30.14,WNW,298,0.0,3.0,39,0.00,,,0.00,,2013-04-06 00:13:00,
2013-04-05 20:23:00,43.0,19.0,30.14,North,350,0.0,4.0,38,0.00,,,0.00,,2013-04-06 00:23:00,
2013-04-05 20:33:00,42.0,19.0,30.15,WNW,291,0.0,1.0,39,0.00,,,0.00,,2013-04-06 00:33:00,
2013-04-05 20:42:00,42.0,19.0,30.15,WNW,291,0.0,1.0,39,0.00,,,0.00,,2013-04-06 00:42:00,
2013-04-05 20:52:00,42.0,21.0,30.16,West,273,0.0,0.0,42,0.00,,,0.00,,2013-04-06 00:52:00,
2013-04-05 21:02:00,40.0,19.0,30.16,West,273,0.0,0.0,42,0.00,,,0.00,,2013-04-06 01:02:00,
2013-04-05 21:13:00,40.0,19.0,30.16,West,273,0.0,0.0,42,0.00,,,0.00,,2013-04-06 01:13:00,
2013-04-05 21:23:00,39.0,18.0,30.16,West,272,0.0,1.0,43,0.00,,,0.00,,2013-04-06 01:23:00,
2013-04-05 21:33:00,38.0,18.0,30.16,West,273,0.0,0.0,44,0.00,,,0.00,,2013-04-06 01:33:00,
2013-04-05 21:43:00,38.0,18.0,30.16,West,273,0.0,0.0,44,0.00,,,0.00,,2013-04-06 01:43:00,
2013-04-05 21:52:00,37.0,21.0,30.17,West,273,0.0,0.0,52,0.00,,,0.00,,2013-04-06 01:52:00,
2013-04-05 22:02:00,35.0,20.0,30.17,West,273,0.0,0.0,55,0.00,,,0.00,,2013-04-06 02:02:00,
2013-04-05 22:12:00,35.0,20.0,30.17,West,273,0.0,0.0,55,0.00,,,0.00,,2013-04-06 02:12:00,
2013-04-05 22:23:00,34.0,21.0,30.18,West,272,0.0,0.0,59,0.00,,,0.00,,2013-04-06 02:23:00,
2013-04-05 22:33:00,33.0,19.0,30.18,West,273,0.0,0.0,56,0.00,,,0.00,,2013-04-06 02:33:00,
2013-04-05 22:42:00,33.0,19.0,30.18,West,273,0.0,0.0,56,0.00,,,0.00,,2013-04-06 02:42:00,
2013-04-05 22:52:00,32.0,19.0,30.18,West,273,0.0,0.0,59,0.00,,,0.00,,2013-04-06 02:52:00,
2013-04-05 23:03:00,31.0,20.0,30.19,East,101,0.0,2.0,64,0.00,,,0.00,,2013-04-06 03:03:00,
2013-04-05 23:13:00,31.0,20.0,30.19,East,101,0.0,2.0,64,0.00,,,0.00,,2013-04-06 03:13:00,
2013-04-05 23:22:00,33.0,23.0,30.20,ESE,105,0.0,1.0,66,0.00,,,0.00,,2013-04-06 03:22:00,
2013-04-05 23:34:00,33.0,24.0,30.20,East,88,0.0,2.0,69,0.00,,,0.00,,2013-04-06 03:34:00,
2013-04-05 23:43:00,33.0,24.0,30.20,East,88,0.0,2.0,69,0.00,,,0.00,,2013-04-06 03:43:00,
2013-04-05 23:53:00,33.0,24.0,30.20,East,88,0.0,2.0,69,0.00,,,0.00,,2013-04-06 03:53:00,